Latest Coastal Weather Observations for Spring Bay

IDT60701

Issued at 3:22 pm EST Tuesday 30 May 2017 (issued every 10 minutes, with the page automatically refreshed every 10 minutes)

About coastal observations | Map of coastal stations | Coastal observations for TAS | Marine services | Other Formats
Station Details ID: 092133 Name: SPRING BAY NTC AWS Lat: -42.55 Lon: 147.93 Height: 0.0 m
Data from the previous 72 hours. | See also: Recent months for locations in Tasmania
Date/Time
EST
Temp
°C
Wind Pressure Rain since
9am
mm
Weather Cloud Vis
km
Sea
Height
m
Swell
Dir  Spd
kts
Gust
kts
hPa Trend Height
m
Period
s
Dir
30/03:00pm 8.1 - - - 1016.5 - - - - - - - - -
30/02:30pm 8.4 - - - 1016.3 - - - - - - - - -
30/02:00pm 8.2 - - - 1016.2 - - - - - - - - -
30/01:30pm 8.6 - - - 1015.5 - - - - - - - - -
30/01:00pm 8.7 - - - 1015.3 - - - - - - - - -
30/12:30pm 9.1 - - - 1014.6 - - - - - - - - -
30/12:00pm 9.4 - - - 1014.1 - - - - - - - - -
30/11:30am 9.6 - - - 1013.6 - - - - - - - - -
30/11:00am 9.5 - - - 1013.0 - - - - - - - - -
30/10:30am 9.5 - - - 1012.5 - - - - - - - - -
30/10:00am 9.3 - - - 1011.7 - - - - - - - - -
30/09:30am 9.3 - - - 1011.2 - - - - - - - - -
30/09:00am 9.9 - - - 1010.8 - - - - - - - - -
30/08:30am 10.1 - - - 1010.1 - - - - - - - - -
30/08:00am 10.6 - - - 1009.4 - - - - - - - - -
30/07:30am 11.4 - - - 1008.2 - - - - - - - - -
30/07:00am 12.1 - - - 1007.5 - - - - - - - - -
30/06:30am 11.8 - - - 1007.1 - - - - - - - - -
30/06:00am 12.3 - - - 1006.8 - - - - - - - - -
30/05:30am 11.8 - - - 1007.0 - - - - - - - - -
30/05:00am 11.9 - - - 1006.9 - - - - - - - - -
30/04:30am 11.9 - - - 1007.1 - - - - - - - - -
30/04:00am 11.7 - - - 1007.8 - - - - - - - - -
30/03:30am 11.6 - - - 1008.3 - - - - - - - - -
30/03:00am 11.3 - - - 1008.8 - - - - - - - - -
30/02:30am 11.2 - - - 1009.1 - - - - - - - - -
30/02:00am 9.4 - - - 1009.5 - - - - - - - - -
30/01:30am 9.0 - - - 1009.7 - - - - - - - - -
30/01:00am 10.4 - - - 1010.3 - - - - - - - - -
30/12:30am 10.0 - - - 1010.7 - - - - - - - - -
30/12:00am 9.8 - - - 1011.2 - - - - - - - - -
 
Date/Time
EST
Temp
°C
Wind Pressure Rain since
9am
mm
Weather Cloud Vis
km
Sea
Height
m
Swell
Dir  Spd
kts
Gust
kts
hPa Trend Height
m
Period
s
Dir
29/11:30pm 9.7 - - - 1011.5 - - - - - - - - -
29/11:00pm 7.7 - - - 1011.7 - - - - - - - - -
29/10:30pm 7.9 - - - 1012.0 - - - - - - - - -
29/10:00pm 9.5 - - - 1012.1 - - - - - - - - -
29/09:30pm 7.8 - - - 1012.5 - - - - - - - - -
29/09:00pm 9.8 - - - 1012.6 - - - - - - - - -
29/08:30pm 7.8 - - - 1012.6 - - - - - - - - -
29/08:00pm 7.4 - - - 1012.8 - - - - - - - - -
29/07:30pm 7.2 - - - 1012.8 - - - - - - - - -
29/07:00pm 7.8 - - - 1012.7 - - - - - - - - -
29/06:30pm 8.1 - - - 1012.8 - - - - - - - - -
29/06:00pm 9.6 - - - 1012.7 - - - - - - - - -
29/05:30pm 10.6 - - - 1012.8 - - - - - - - - -
29/05:00pm 11.1 - - - 1012.7 - - - - - - - - -
29/04:30pm 11.4 - - - 1012.5 - - - - - - - - -
29/04:00pm 11.8 - - - 1012.0 - - - - - - - - -
29/03:30pm 12.1 - - - 1011.9 - - - - - - - - -
29/03:00pm 12.3 - - - 1011.7 - - - - - - - - -
29/02:30pm 13.3 - - - 1011.5 - - - - - - - - -
29/02:00pm 12.0 - - - 1011.4 - - - - - - - - -
29/01:30pm 11.6 - - - 1011.3 - - - - - - - - -
29/01:00pm 11.9 - - - 1011.2 - - - - - - - - -
29/12:30pm 11.8 - - - 1011.2 - - - - - - - - -
29/12:00pm 12.0 - - - 1011.3 - - - - - - - - -
29/11:30am 12.2 - - - 1011.3 - - - - - - - - -
29/11:00am 11.7 - - - 1011.2 - - - - - - - - -
29/10:30am 11.3 - - - 1011.4 - - - - - - - - -
29/10:00am 10.3 - - - 1011.3 - - - - - - - - -
29/09:30am 10.3 - - - 1011.1 - - - - - - - - -
29/09:00am 10.2 - - - 1010.8 - - - - - - - - -
29/08:30am 8.6 - - - 1010.6 - - - - - - - - -
29/08:00am 8.3 - - - 1010.2 - - - - - - - - -
29/07:30am 8.1 - - - 1009.7 - - - - - - - - -
29/07:00am 8.5 - - - 1009.4 - - - - - - - - -
29/06:30am 8.7 - - - 1009.1 - - - - - - - - -
29/06:00am 8.4 - - - 1008.5 - - - - - - - - -
29/05:30am 8.3 - - - 1008.2 - - - - - - - - -
29/05:00am 7.5 - - - 1007.9 - - - - - - - - -
29/04:30am 8.4 - - - 1007.4 - - - - - - - - -
29/04:00am 8.7 - - - 1007.1 - - - - - - - - -
29/03:30am 8.7 - - - 1006.8 - - - - - - - - -
29/03:00am 9.1 - - - 1006.5 - - - - - - - - -
29/02:30am 8.5 - - - 1006.5 - - - - - - - - -
29/02:00am 8.0 - - - 1006.3 - - - - - - - - -
29/01:30am 8.6 - - - 1006.2 - - - - - - - - -
29/01:00am 8.9 - - - 1006.2 - - - - - - - - -
29/12:30am 8.3 - - - 1006.1 - - - - - - - - -
29/12:00am 8.2 - - - 1006.0 - - - - - - - - -
 
Date/Time
EST
Temp
°C
Wind Pressure Rain since
9am
mm
Weather Cloud Vis
km
Sea
Height
m
Swell
Dir  Spd
kts
Gust
kts
hPa Trend Height
m
Period
s
Dir
28/11:30pm 9.3 - - - 1005.8 - - - - - - - - -
28/11:00pm 9.0 - - - 1005.6 - - - - - - - - -
28/10:30pm 9.3 - - - 1005.3 - - - - - - - - -
28/10:00pm 9.2 - - - 1005.3 - - - - - - - - -
28/09:30pm 9.3 - - - 1005.0 - - - - - - - - -
28/09:00pm 9.8 - - - 1004.8 - - - - - - - - -
28/08:30pm 10.1 - - - 1004.5 - - - - - - - - -
28/08:00pm 10.0 - - - 1004.2 - - - - - - - - -
28/07:30pm 10.3 - - - 1003.7 - - - - - - - - -
28/07:00pm 10.1 - - - 1003.4 - - - - - - - - -
28/06:30pm 9.9 - - - 1002.9 - - - - - - - - -
28/06:00pm 10.9 - - - 1002.5 - - - - - - - - -
28/05:30pm 11.9 - - - 1001.7 - - - - - - - - -
28/05:00pm 12.8 - - - 1001.1 - - - - - - - - -
28/04:30pm 12.9 - - - 1000.7 - - - - - - - - -
28/04:00pm 13.1 - - - 1000.6 - - - - - - - - -
28/03:30pm 13.2 - - - 1000.2 - - - - - - - - -
28/03:00pm 13.1 - - - 1000.0 - - - - - - - - -
28/02:30pm 12.9 - - - 999.7 - - - - - - - - -
28/02:00pm 13.0 - - - 999.6 - - - - - - - - -
28/01:30pm 12.5 - - - 999.4 - - - - - - - - -
28/01:00pm 12.1 - - - 999.7 - - - - - - - - -
28/12:30pm 12.0 - - - 999.5 - - - - - - - - -
28/12:00pm 11.8 - - - 999.7 - - - - - - - - -
28/11:30am 11.7 - - - 999.8 - - - - - - - - -
28/11:00am 11.9 - - - 1000.3 - - - - - - - - -
28/10:30am 12.4 - - - 1000.4 - - - - - - - - -
28/10:00am 12.2 - - - 1000.3 - - - - - - - - -
28/09:30am 12.0 - - - 1000.2 - - - - - - - - -
28/09:00am 12.2 - - - 1000.1 - - - - - - - - -
28/08:30am 12.3 - - - 1000.0 - - - - - - - - -
28/08:00am 12.1 - - - 999.9 - - - - - - - - -
28/07:30am 12.1 - - - 1000.1 - - - - - - - - -
28/07:00am 12.3 - - - 999.9 - - - - - - - - -
28/06:30am 12.4 - - - 999.9 - - - - - - - - -
28/06:00am 12.5 - - - 999.9 - - - - - - - - -
28/05:30am 12.6 - - - 999.5 - - - - - - - - -
28/05:00am 12.6 - - - 1000.1 - - - - - - - - -
28/04:30am 12.9 - - - 1000.2 - - - - - - - - -
28/04:00am 12.8 - - - 1000.6 - - - - - - - - -
28/03:30am 12.8 - - - 1001.1 - - - - - - - - -
28/03:00am 12.7 - - - 1001.8 - - - - - - - - -
28/02:30am 13.6 - - - 1002.1 - - - - - - - - -
28/02:00am 13.7 - - - 1002.5 - - - - - - - - -
28/01:30am 14.2 - - - 1002.7 - - - - - - - - -

Other Formats:

Comma delimited format used in spreadsheet applications
http://www.bom.gov.au/fwo/IDT60701/IDT60701.95987.axf

JavaScript Object Notation format (JSON) in row-major order
http://www.bom.gov.au/fwo/IDT60701/IDT60701.95987.json